Location: Newark
(7.0858°N, 171.3717°E)
Time: 02:33:40
(UTC+00:00)

Transit 4A - Pass Details

Date: 01 December 2020
Orbit: 864 x 980 km, 66.8° (Epoch: 20 January)

Event Time Altitude Azimuth Distance (km) Brightness Sun altitude
Rises 20:03:01 0° 246° (WSW) 3,573 10.6 19.9°
Reaches altitude 10° 20:08:04 10° 282° (WNW) 2,661 9.8 21.0°
Maximum altitude 20:09:26 11° 295° (WNW) 2,616 9.7 21.3°
Drops below altitude 10° 20:10:48 10° 308° (NW) 2,676 9.8 21.6°
Sets 20:16:00 0° 344° (NNW) 3,646 10.6 22.7°
